Simultaneous Nadir Overpasses (SNOs) Predictions

Prediction of SNOs between GOES-15 and TERRA Satellite Orbit:

Table of predicted SNOs for the next 14.0 days since TLE Epoch: 6/2/2017
Index Date Time (GOES-15) GOES-15 Lat,Lon TERRA Lat,Lon Distance(km) Time Diff (sec)
1 06/02/2017 07:17:11 0.13,-135.01 0.78,-131.85 358.66 12
2 06/02/2017 19:39:59 -0.12,-135.06 0.29,-137.02 222.42 80
3 06/04/2017 19:25:08 -0.12,-135.12 -0.34,-134.06 120.60 80
4 06/05/2017 07:49:12 0.11,-135.11 -0.78,-139.25 470.99 80
5 06/06/2017 19:12:57 -0.13,-135.18 -0.97,-131.11 463.14 80
6 06/07/2017 07:37:01 0.11,-135.17 -0.15,-136.30 128.57 80
7 06/09/2017 07:22:10 0.12,-135.22 0.49,-133.34 213.21 80
8 06/09/2017 19:46:06 -0.10,-135.27 0.58,-138.50 368.17 80
9 06/11/2017 19:33:55 -0.11,-135.31 -0.06,-135.55 27.29 80
10 06/13/2017 19:19:04 -0.12,-135.35 -0.70,-132.60 312.93 80
11 06/14/2017 07:43:08 0.11,-135.33 -0.41,-137.79 279.35 80




NCC Satellite Simultaneous Nadir Overpasses (SNOs) Prediction Service
